Weather History for Black River Falls, WI

Change the Weather History Date:

Monday, September 24, 2012

  Actual Average (KLSE) Record (KLSE)
Temperature  
Mean Temperature 50 °F 59 °F  
Max Temperature 77 °F 70 °F 92 °F (1891)
Min Temperature 24 °F 49 °F 31 °F (1942)
Degree Days  
Heating Degree Days 14 7  
Month to date heating degree days 89  
Since 1 July heating degree days 109  
Cooling Degree Days 0 1  
Month to date cooling degree days 68  
Year to date cooling degree days 768  
Moisture  
Dew Point 31 °F    
Average Humidity 63    
Maximum Humidity 100    
Minimum Humidity 19    
Precipitation  
Precipitation 0.00 in 0.11 in 1.49 in (1986)
Month to date precipitation 2.93  
Year to date precipitation 26.89  
Snow  
Snow 0.00 in 0.00 in 0.00 in (2002)
Month to date snowfall 0.0  
Since 1 July snowfall 0.0  
Snow Depth -    
Sea Level Pressure  
Sea Level Pressure 29.96 in    
Wind  
Wind Speed 4 mph (SW)    
Max Wind Speed 17 mph    
Max Gust Speed 32 mph    
Visibility 10 miles    
Events      
T = Trace of Precipitation, MM = Missing Value Source: NWS Daily Summary

Daily Weather History Graph

Daily Weather History Graph

Search for Another Location

Airport:

Trip Planner

Search our weather history database for the weather conditions in past years. The results will help you decide how hot, cold, wet, or windy it might be!

Date:

Astronomy

Sep. 24, 2012 Rise Set
Actual Time 6:53 AM CDT 6:56 PM CDT
Civil Twilight 6:24 AM CDT 7:25 PM CDT
Nautical Twilight 5:50 AM CDT 7:58 PM CDT
Astronomical Twilight 5:16 AM CDT 8:33 PM CDT
Moon 3:52 PM CDT (9/24) 12:59 AM CDT (9/24)
Length of Visible Light 13h 00m
Length of Day
12h 02m
Waxing Gibbous, 71% of the Moon is Illuminated
Sep 24
Waxing Gibbous
Sep 29
Full
Oct 8
Last Quarter
Oct 15
New
Oct 21
First Quarter

Hourly Weather History & Observations

Time (CDT) Temp. Windchill Dew Point Humidity Pressure Visibility Wind Dir Wind Speed Gust Speed Precip Events Conditions
12:15 AM 28.4 °F - 28.4 °F 100% 30.18 in 10.0 mi Calm Calm - N/A   Clear
12:35 AM 28.4 °F - 28.4 °F 100% 30.17 in 10.0 mi Calm Calm - N/A   Clear
12:55 AM 26.6 °F - 26.6 °F 100% 30.16 in 10.0 mi Calm Calm - N/A   Clear
1:15 AM 28.4 °F - 28.4 °F 100% 30.16 in 10.0 mi Calm Calm - N/A   Clear
1:35 AM 28.4 °F 24.6 °F 28.4 °F 100% 30.16 in 10.0 mi SSE 3.5 mph - N/A   Clear
1:55 AM 28.4 °F - 28.4 °F 100% 30.16 in 10.0 mi Calm Calm - N/A   Clear
2:15 AM 28.4 °F 24.6 °F 28.4 °F 100% 30.16 in 10.0 mi South 3.5 mph - N/A   Clear
2:35 AM 28.4 °F 24.6 °F 28.4 °F 100% 30.15 in 10.0 mi South 3.5 mph - N/A   Clear
2:55 AM 30.2 °F - 30.2 °F 100% 30.14 in 10.0 mi Calm Calm - N/A   Clear
3:15 AM 28.4 °F - 28.4 °F 100% 30.14 in 10.0 mi Calm Calm - N/A   Clear
3:35 AM 28.4 °F - 28.4 °F 100% 30.13 in 10.0 mi Calm Calm - N/A   Clear
4:15 AM 28.4 °F 23.3 °F 28.4 °F 100% 30.12 in 10.0 mi SSW 4.6 mph - N/A   Clear
4:35 AM 28.4 °F - 28.4 °F 100% 30.11 in 10.0 mi Calm Calm - N/A   Clear
4:55 AM 26.6 °F - 26.6 °F 100% 30.11 in 10.0 mi Calm Calm - N/A   Clear
5:15 AM 26.6 °F - 26.6 °F 100% 30.11 in 10.0 mi Calm Calm - N/A   Clear
5:35 AM 26.6 °F 21.2 °F 26.6 °F 100% 30.10 in 10.0 mi SSW 4.6 mph - N/A   Clear
5:55 AM 26.6 °F - 26.6 °F 100% 30.09 in 10.0 mi Calm Calm - N/A   Clear
6:15 AM 26.6 °F - 26.6 °F 100% 30.09 in 10.0 mi Calm Calm - N/A   Clear
6:35 AM 24.8 °F - 24.8 °F 100% 30.08 in 10.0 mi Calm Calm - N/A   Clear
6:55 AM 24.8 °F 17.9 °F 24.8 °F 100% 30.08 in 10.0 mi SSW 5.8 mph - N/A   Clear
7:15 AM 30.2 °F 26.7 °F 30.2 °F 100% 30.08 in 10.0 mi SSW 3.5 mph - N/A   Clear
7:35 AM 32.0 °F 27.5 °F 32.0 °F 100% 30.07 in 10.0 mi SSW 4.6 mph - N/A   Clear
7:55 AM 33.8 °F 28.6 °F 32.0 °F 93% 30.06 in 10.0 mi SSW 5.8 mph - N/A   Clear
8:15 AM 37.4 °F 33.8 °F 32.0 °F 81% 30.05 in 10.0 mi SSW 4.6 mph - N/A   Clear
8:35 AM 39.2 °F 35.9 °F 32.0 °F 75% 30.05 in 10.0 mi SSW 4.6 mph - N/A   Clear
8:55 AM 42.8 °F 40.1 °F 32.0 °F 66% 30.04 in 10.0 mi SSW 4.6 mph - N/A   Clear
9:15 AM 46.4 °F 43.5 °F 32.0 °F 57% 30.03 in 10.0 mi SSW 5.8 mph - N/A   Clear
9:35 AM 50.0 °F - 32.0 °F 50% 30.02 in 10.0 mi SSW 9.2 mph - N/A   Clear
9:55 AM 51.8 °F - 30.2 °F 44% 30.01 in 10.0 mi SW 11.5 mph 18.4 mph N/A   Clear
10:15 AM 55.4 °F - 28.4 °F 36% 29.99 in 10.0 mi SW 12.7 mph 19.6 mph N/A   Clear
10:35 AM 55.4 °F - 28.4 °F 36% 29.98 in 10.0 mi SW 11.5 mph 23.0 mph N/A   Clear
10:55 AM 59.0 °F - 28.4 °F 31% 29.97 in 10.0 mi SW 12.7 mph 20.7 mph N/A   Clear
11:15 AM 60.8 °F - 30.2 °F 31% 29.96 in 10.0 mi SW 12.7 mph 19.6 mph N/A   Clear
11:35 AM 60.8 °F - 30.2 °F 31% 29.95 in 10.0 mi SW 16.1 mph 21.9 mph N/A   Clear
11:55 AM 62.6 °F - 32.0 °F 32% 29.93 in 10.0 mi WSW 12.7 mph 25.3 mph N/A   Clear
12:15 PM 62.6 °F - 32.0 °F 32% 29.92 in 10.0 mi SW 13.8 mph 21.9 mph N/A   Clear
12:35 PM 66.2 °F - 32.0 °F 28% 29.91 in 10.0 mi SW 8.1 mph 24.2 mph N/A   Clear
12:55 PM 68.0 °F - 32.0 °F 26% 29.90 in 10.0 mi SW 10.4 mph 24.2 mph N/A   Clear
1:15 PM 68.0 °F - 32.0 °F 26% 29.88 in 10.0 mi WSW 10.4 mph 23.0 mph N/A   Clear
1:35 PM 69.8 °F - 32.0 °F 25% 29.87 in 10.0 mi SW 13.8 mph 25.3 mph N/A   Clear
1:55 PM 71.6 °F - 32.0 °F 23% 29.85 in 10.0 mi SW 15.0 mph 21.9 mph N/A   Clear
2:15 PM 71.6 °F - 32.0 °F 23% 29.84 in 10.0 mi SW 16.1 mph 25.3 mph N/A   Clear
2:55 PM 73.4 °F - 32.0 °F 22% 29.81 in 10.0 mi SW 16.1 mph 28.8 mph N/A   Clear
3:15 PM 73.4 °F - 32.0 °F 22% 29.80 in 10.0 mi SW 16.1 mph 23.0 mph N/A   Clear
3:55 PM 75.2 °F - 32.0 °F 21% 29.78 in 10.0 mi WSW 15.0 mph 32.2 mph N/A   Clear
4:15 PM 75.2 °F - 32.0 °F 21% 29.77 in 10.0 mi WSW 15.0 mph 25.3 mph N/A   Clear
4:35 PM 75.2 °F - 32.0 °F 21% 29.76 in 10.0 mi WSW 17.3 mph 23.0 mph N/A   Clear
5:15 PM 77.0 °F - 32.0 °F 19% 29.75 in 10.0 mi WSW 13.8 mph 21.9 mph N/A   Clear
5:55 PM 75.2 °F - 33.8 °F 22% 29.74 in 10.0 mi WSW 6.9 mph 17.3 mph N/A   Clear
7:15 PM 68.0 °F - 35.6 °F 30% 29.74 in 10.0 mi SW 4.6 mph - N/A   Clear
7:55 PM 66.2 °F - 35.6 °F 32% 29.75 in 10.0 mi SW 5.8 mph - N/A   Clear
8:15 PM 64.4 °F - 35.6 °F 34% 29.75 in 10.0 mi SW 3.5 mph - N/A   Clear
8:35 PM 59.0 °F - 37.4 °F 45% 29.76 in 10.0 mi Calm Calm - N/A   Clear
8:55 PM 57.2 °F - 37.4 °F 48% 29.76 in 10.0 mi SW 4.6 mph - N/A   Clear
9:15 PM 51.8 °F - 37.4 °F 58% 29.76 in 10.0 mi Calm Calm - N/A   Clear
9:35 PM 50.0 °F - 39.2 °F 66% 29.77 in 10.0 mi Calm Calm - N/A   Clear
9:55 PM 48.2 °F - 37.4 °F 66% 29.77 in 10.0 mi South 3.5 mph - N/A   Clear
10:15 PM 46.4 °F 45.2 °F 37.4 °F 71% 29.77 in 10.0 mi South 3.5 mph - N/A   Clear
10:35 PM 46.4 °F - 37.4 °F 71% 29.77 in 10.0 mi Calm Calm - N/A   Clear
11:15 PM 53.6 °F - 37.4 °F 54% 29.77 in 10.0 mi SSW 5.8 mph - N/A   Clear